{"data":{"norad_id":53137,"intl_designator":"2022-083F","name":"STARLINK-4145","alt_names":[],"object_type":"PAYLOAD","status":"ACTIVE","operator":null,"country":"US","launch_date":"2022-07-17","launch_site_code":"AFETR","launch_vehicle":null,"mission":null,"orbit_class":"UNKNOWN","rcs_meters":null,"size_class":null,"mass_kg":null,"dimensions":null,"purposes":["comms"],"wikipedia_slug":null,"has_3d_model":false,"image_url":null,"decayed_at":null,"tle_current":{"epoch":"2026-09-19T22:49:14.201184Z","epoch_age_seconds":119697,"freshness":"FRESH","line1":"1 53137U 22083F   26262.95085881  .00001789  00000+0  62208-4 0  9992","line2":"2 53137  53.1614   8.7483 0001343  73.2810 286.8340 15.35390695230724","mean_motion":15.35390695,"eccentricity":0.0001343,"inclination_deg":53.1614,"raan_deg":8.7483,"arg_perigee_deg":73.281,"mean_anomaly_deg":286.834,"bstar":6.2208e-5,"rev_number":23072,"period_min":93.787203783985,"perigee_km":458.84193968394,"apogee_km":460.67859889047,"semimajor_km":6837.8972692872,"source":"CELESTRAK","updated_at":"2026-09-20T09:00:40.179195Z"}}}